sat.trackr.live / text

‹ back to catalog

COSMOS 2476 (744)

NORAD 37867 · 2011-064A

PAYLOAD ACTIVE UNKNOWN

§ Identity

Operator
Country
CIS
Launch date
2011-11-04
Launch site
TYMSC
Launch vehicle
Mass (kg)
RCS (m²)
6.31

Purposes: nav

External: N2YO · Heavens-Above · Gunter

§ Orbital elements

Epoch: 2026-05-25T04:18:26.021376Z

Period
675.73 min
Inclination
65.2579°
Eccentricity
0.0023243
Mean motion
2.13103610 rev/d
Perigee alt
19,070.5 km
Apogee alt
19,189.0 km
Semi-major
25,507.9 km
B*
0.0000e+0
RAAN
73.6474°
Arg perigee
240.8513°
Mean anomaly
272.9476°
Rev number
11,327

§ Raw data

COSMOS 2476 (744)1 37867U 11064A   26145.17946784 -.00000041  00000+0  00000+0 0  99912 37867  65.2579  73.6474 0023243 240.8513 272.9476  2.13103610113273

JSON: /api/v1/satellites/37867 · /tle

For live sub-satellite position, see the globe view (requires WebGL).

§ Visibility from observer

Set your observer location to see the next 7 days of passes ≥ 10°. The values pass through the URL so the page stays shareable.

No JS? Fill the form by hand. The geolocation button needs JavaScript.